EW5836 Weather Reports


Display with metric or nautical units.
time (UTC)temp
F
wind
direction
speed
MPH
gust
MPH
rain 1hr
in
rain 24hr
in
rain mn
in
humidity
%
barometer
mb
20260906195051 79 314 0.0 5.0 0.00 0.00 0.00 71 1023.8
20260906194552 79 314 3.0 5.0 0.00 0.00 0.00 71 1023.8
20260906194037 79 309 0.0 0.0 0.00 0.00 0.00 72 1023.8
20260906193558 79 310 0.0 0.0 0.00 0.00 0.00 72 1023.7
20260906193045 79 310 0.0 0.0 0.00 0.00 0.00 72 1023.6
20260906192545 79 310 0.0 0.0 0.00 0.00 0.00 71 1023.6
20260906192035 79 310 0.0 0.0 0.00 0.00 0.00 71 1023.5
20260906191554 79 309 0.0 0.0 0.00 0.00 0.00 71 1023.5
20260906191046 79 293 0.0 0.0 0.00 0.00 0.00 71 1023.4
20260906190610 79 292 0.0 0.0 0.00 0.00 0.00 71 1023.4
20260906190044 79 292 0.0 0.0 0.00 0.00 0.00 72 1023.4
20260906185548 80 292 0.0 0.0 0.00 0.00 0.00 71 1023.3
20260906185033 80 292 0.0 0.0 0.00 0.00 0.00 71 1023.3
20260906184536 80 292 0.0 0.0 0.00 0.00 0.00 70 1023.3
20260906184041 80 291 0.0 0.0 0.00 0.00 0.00 69 1023.3
20260906183544 81 291 0.0 0.0 0.00 0.00 0.00 69 1023.2
20260906183059 81 291 0.0 0.0 0.00 0.00 0.00 67 1023.1
20260906182535 81 291 0.0 0.0 0.00 0.00 0.00 66 1023.1
20260906182044 81 291 0.0 0.0 0.00 0.00 0.00 65 1023.1
20260906181547 81 291 0.0 0.0 0.00 0.00 0.00 65 1023.0
20260906181100 82 291 0.0 0.0 0.00 0.00 0.00 65 1023.0
20260906180537 82 291 0.0 0.0 0.00 0.00 0.00 65 1023.0
20260906180042 82 291 0.0 0.0 0.00 0.00 0.00 65 1023.0
20260906175544 82 291 0.0 0.0 0.00 0.00 0.00 65 1022.9
20260906175033 82 291 0.0 0.0 0.00 0.00 0.00 65 1022.9
20260906174538 82 291 0.0 0.0 0.00 0.00 0.00 64 1022.9
20260906174033 83 167 0.0 0.0 0.00 0.00 0.00 64 1022.9
20260906173536 83 167 0.0 0.0 0.00 0.00 0.00 63 1022.9
20260906173044 83 167 0.0 0.0 0.00 0.00 0.00 63 1022.9
20260906172550 84 167 0.0 0.0 0.00 0.00 0.00 62 1022.9
20260906172056 84 167 0.0 0.0 0.00 0.00 0.00 62 1022.9
20260906171535 84 167 0.0 0.0 0.00 0.00 0.00 62 1022.8
20260906171043 85 167 0.0 0.0 0.00 0.00 0.00 61 1022.8
20260906170550 85 167 0.0 0.0 0.00 0.00 0.00 61 1022.7
20260906170042 85 167 0.0 0.0 0.00 0.00 0.00 61 1022.7
20260906165544 85 166 0.0 0.0 0.00 0.00 0.00 60 1022.7
20260906165034 86 166 0.0 0.0 0.00 0.00 0.00 60 1022.6
20260906164556 86 166 0.0 0.0 0.00 0.00 0.00 59 1022.6
20260906164040 86 167 0.0 0.0 0.00 0.00 0.00 59 1022.6
20260906163543 86 166 0.0 0.0 0.00 0.00 0.00 55 1022.6
20260906163057 86 167 0.0 0.0 0.00 0.00 0.00 55 1022.6
20260906162533 86 167 0.0 0.0 0.00 0.00 0.00 56 1022.6
20260906162042 87 166 0.0 0.0 0.00 0.00 0.00 56 1022.6
20260906161543 87 166 0.0 1.0 0.00 0.00 0.00 55 1022.6
20260906161117 87 166 0.0 1.0 0.00 0.00 0.00 55 1022.6
20260906160612 87 165 0.0 0.0 0.00 0.00 0.00 54 1022.6
20260906160037 87 165 0.0 0.0 0.00 0.00 0.00 54 1022.6
20260906155537 87 165 0.0 0.0 0.00 0.00 0.00 55 1022.5
20260906155047 87 166 0.0 0.0 0.00 0.00 0.00 55 1022.5
20260906154551 87 149 0.0 0.0 0.00 0.00 0.00 55 1022.5
20260906154041 87 145 0.0 0.0 0.00 0.00 0.00 55 1022.4
20260906153602 87 143 0.0 1.0 0.00 0.00 0.00 55 1022.5
20260906153052 87 143 0.0 1.0 0.00 0.00 0.00 55 1022.4
20260906152551 87 145 0.0 1.0 0.00 0.00 0.00 55 1022.5
20260906152043 87 145 0.0 4.0 0.00 0.00 0.00 54 1022.5
20260906151547 88 145 0.0 4.0 0.00 0.00 0.00 55 1022.6
20260906151056 88 112 0.0 0.0 0.00 0.00 0.00 53 1022.6
20260906150533 88 112 0.0 0.0 0.00 0.00 0.00 54 1022.6
20260906150045 88 112 0.0 0.0 0.00 0.00 0.00 54 1022.5
20260906145607 87 112 0.0 7.0 0.00 0.00 0.00 54 1022.6
20260906145056 88 112 1.0 7.0 0.00 0.00 0.00 54 1022.6
20260906144533 88 137 0.0 4.0 0.00 0.00 0.00 54 1022.6
20260906144041 88 122 0.0 4.0 0.00 0.00 0.00 54 1022.6
20260906143540 89 134 0.0 2.0 0.00 0.00 0.00 53 1022.7
20260906143037 88 73 0.0 2.0 0.00 0.00 0.00 53 1022.7
20260906142541 88 97 0.0 0.0 0.00 0.00 0.00 53 1022.8
20260906142050 88 114 0.0 1.0 0.00 0.00 0.00 53 1022.8
20260906141553 89 112 0.0 8.0 0.00 0.00 0.00 52 1022.8
20260906141041 89 104 1.0 8.0 0.00 0.00 0.00 52 1022.8
20260906140540 90 354 0.0 0.0 0.00 0.00 0.00 50 1022.7
20260906140051 90 341 0.0 1.0 0.00 0.00 0.00 50 1022.8
20260906135555 89 354 0.0 0.0 0.00 0.00 0.00 51 1022.8
20260906135040 88 22 0.0 4.0 0.00 0.00 0.00 52 1022.9
20260906134541 88 52 0.0 4.0 0.00 0.00 0.00 53 1023.0
20260906134101 88 141 0.0 4.0 0.00 0.00 0.00 54 1023.0
20260906133534 88 129 0.0 5.0 0.00 0.00 0.00 54 1023.0
20260906133042 88 99 0.0 8.0 0.00 0.00 0.00 53 1023.1
20260906132547 88 112 2.0 8.0 0.00 0.00 0.00 54 1023.1
20260906132038 88 57 0.0 4.0 0.00 0.00 0.00 54 1023.2
20260906131540 88 31 0.0 5.0 0.00 0.00 0.00 55 1023.2
20260906131049 87 90 0.0 5.0 0.00 0.00 0.00 56 1023.2
20260906130552 87 170 0.0 5.0 0.00 0.00 0.00 56 1023.3
20260906130040 87 86 0.0 4.0 0.00 0.00 0.00 55 1023.3
20260906125604 87 111 1.0 8.0 0.00 0.00 0.00 57 1023.3
20260906125039 87 110 2.0 8.0 0.00 0.00 0.00 56 1023.3
20260906124724 87 99 0.0 0.0 0.00 0.00 0.00 56 1023.3
20260906124040 86 139 0.0 1.0 0.00 0.00 0.00 58 1023.4
20260906123538 86 139 0.0 2.0 0.00 0.00 0.00 57 1023.5
20260906123036 86 137 0.0 2.0 0.00 0.00 0.00 58 1023.5
20260906122538 86 114 0.0 4.0 0.00 0.00 0.00 58 1023.5
20260906122058 86 114 0.0 7.0 0.00 0.00 0.00 59 1023.5
20260906121533 86 105 0.0 7.0 0.00 0.00 0.00 59 1023.4
20260906121045 86 128 2.0 7.0 0.00 0.00 0.00 59 1023.4
20260906120544 86 118 0.0 8.0 0.00 0.00 0.00 59 1023.5
20260906120045 86 129 2.0 11.0 0.00 0.00 0.00 59 1023.6
20260906115548 86 155 6.0 11.0 0.00 0.00 0.00 59 1023.5
20260906115037 86 52 0.0 3.0 0.00 0.00 0.00 60 1023.6
20260906114534 85 72 0.0 4.0 0.00 0.00 0.00 61 1023.6
20260906114046 85 125 2.0 10.0 0.00 0.00 0.00 60 1023.6
20260906113544 85 125 4.0 10.0 0.00 0.00 0.00 60 1023.7
20260906113059 85 88 0.0 9.0 0.00 0.00 0.00 61 1023.7
20260906112532 85 145 2.0 9.0 0.00 0.00 0.00 62 1023.8
20260906112042 85 147 0.0 10.0 0.00 0.00 0.00 62 1023.8
20260906111543 85 131 1.0 10.0 0.00 0.00 0.00 63 1023.9
20260906111033 84 152 0.0 10.0 0.00 0.00 0.00 63 1023.8
20260906110536 84 157 4.0 11.0 0.00 0.00 0.00 62 1023.9
20260906110041 84 137 2.0 11.0 0.00 0.00 0.00 62 1023.8
20260906105545 84 153 1.0 7.0 0.00 0.00 0.00 63 1023.9
20260906105101 84 102 0.0 11.0 0.00 0.00 0.00 63 1023.9
20260906104604 84 146 6.0 11.0 0.00 0.00 0.00 62 1023.8
20260906104059 84 177 3.0 10.0 0.00 0.00 0.00 63 1023.8
20260906103536 84 131 0.0 11.0 0.00 0.00 0.00 63 1023.8
20260906103043 84 146 5.0 11.0 0.00 0.00 0.00 64 1023.9
20260906102547 84 138 2.0 9.0 0.00 0.00 0.00 63 1023.9
20260906102040 84 139 3.0 9.0 0.00 0.00 0.00 63 1023.9
20260906101604 84 158 0.0 10.0 0.00 0.00 0.00 62 1024.0
20260906101058 84 127 4.0 10.0 0.00 0.00 0.00 63 1024.1
20260906100533 84 166 5.0 12.0 0.00 0.00 0.00 62 1024.1
20260906100041 84 153 7.0 12.0 0.00 0.00 0.00 61 1024.1
20260906095604 84 110 0.0 12.0 0.00 0.00 0.00 60 1024.1
20260906095034 84 134 5.0 12.0 0.00 0.00 0.00 61 1024.2
20260906094552 84 143 5.0 11.0 0.00 0.00 0.00 62 1024.1
20260906094041 83 119 2.0 10.0 0.00 0.00 0.00 63 1024.2
20260906093602 83 141 6.0 10.0 0.00 0.00 0.00 63 1024.3
20260906093056 83 128 0.0 7.0 0.00 0.00 0.00 64 1024.3
20260906092537 83 94 2.0 16.0 0.00 0.00 0.00 64 1024.2
20260906092043 83 145 8.0 16.0 0.00 0.00 0.00 63 1024.1
20260906091603 83 187 7.0 13.0 0.00 0.00 0.00 62 1024.2
20260906091046 83 122 6.0 12.0 0.00 0.00 0.00 61 1024.2
20260906090608 83 183 0.0 10.0 0.00 0.00 0.00 57 1024.3
20260906090035 83 118 1.0 7.0 0.00 0.00 0.00 57 1024.3
20260906085535 83 147 0.0 7.0 0.00 0.00 0.00 57 1024.3
20260906085046 83 147 0.0 7.0 0.00 0.00 0.00 55 1024.3
20260906084546 83 142 1.0 6.0 0.00 0.00 0.00 56 1024.3
20260906084036 82 151 0.0 7.0 0.00 0.00 0.00 55 1024.2
20260906083539 82 158 3.0 7.0 0.00 0.00 0.00 56 1024.2
20260906083036 82 144 2.0 7.0 0.00 0.00 0.00 55 1024.1
20260906082557 82 145 2.0 5.0 0.00 0.00 0.00 54 1024.2
20260906082043 82 145 0.0 0.0 0.00 0.00 0.00 56 1024.1
20260906081548 81 142 0.0 0.0 0.00 0.00 0.00 55 1024.1
20260906081107 81 142 0.0 0.0 0.00 0.00 0.00 56 1024.1
20260906080550 81 142 0.0 0.0 0.00 0.00 0.00 59 1024.0
20260906080108 80 142 0.0 0.0 0.00 0.00 0.00 59 1024.1
20260906075548 80 142 0.0 1.0 0.00 0.00 0.00 58 1024.1
20260906075033 80 142 0.0 1.0 0.00 0.00 0.00 60 1024.0
20260906074534 80 127 0.0 5.0 0.00 0.00 0.00 61 1024.0
20260906074042 79 156 3.0 5.0 0.00 0.00 0.00 59 1023.9
20260906073544 80 158 0.0 0.0 0.00 0.00 0.00 60 1023.9
20260906073034 79 166 0.0 0.0 0.00 0.00 0.00 60 1023.9
20260906072534 79 166 0.0 0.0 0.00 0.00 0.00 62 1023.8
20260906072045 78 312 0.0 0.0 0.00 0.00 0.00 63 1023.8
20260906071550 78 312 0.0 1.0 0.00 0.00 0.00 63 1023.7
20260906071102 78 312 0.0 1.0 0.00 0.00 0.00 65 1023.7
20260906070544 78 312 0.0 0.0 0.00 0.00 0.00 64 1023.6
20260906070100 78 312 0.0 0.0 0.00 0.00 0.00 64 1023.6
20260906065534 77 312 0.0 0.0 0.00 0.00 0.00 67 1023.5
20260906065044 78 312 0.0 0.0 0.00 0.00 0.00 66 1023.5
20260906064548 78 312 0.0 0.0 0.00 0.00 0.00 66 1023.3
20260906064042 77 312 0.0 0.0 0.00 0.00 0.00 66 1023.3
20260906063604 77 312 0.0 0.0 0.00 0.00 0.00 66 1023.3
20260906063058 77 312 0.0 0.0 0.00 0.00 0.00 65 1023.2
20260906062533 77 312 0.0 0.0 0.00 0.00 0.00 65 1023.2
20260906062044 76 312 0.0 0.0 0.00 0.00 0.00 66 1023.2
20260906061607 76 312 0.0 0.0 0.00 0.00 0.00 64 1023.1
20260906061037 76 312 0.0 0.0 0.00 0.00 0.00 65 1023.1
20260906060558 76 312 0.0 0.0 0.00 0.00 0.00 66 1023.0
20260906060046 75 312 0.0 0.0 0.00 0.00 0.00 69 1023.0
20260906055546 75 312 0.0 0.0 0.00 0.00 0.00 70 1022.9
20260906055036 74 312 0.0 0.0 0.00 0.00 0.00 70 1022.8
20260906054537 74 312 0.0 0.0 0.00 0.00 0.00 69 1022.8
20260906054041 74 312 0.0 0.0 0.00 0.00 0.00 68 1022.7
20260906053543 74 312 0.0 0.0 0.00 0.00 0.00 68 1022.7
20260906053033 74 312 0.0 0.0 0.00 0.00 0.00 67 1022.7
20260906052535 75 312 0.0 0.0 0.00 0.00 0.00 67 1022.6
20260906052041 75 312 0.0 0.0 0.00 0.00 0.00 66 1022.5
20260906051542 75 312 0.0 0.0 0.00 0.00 0.00 65 1022.4
20260906051059 75 312 0.0 2.0 0.00 0.00 0.00 66 1022.3
20260906050538 75 27 0.0 2.0 0.00 0.00 0.00 65 1022.3
20260906050046 74 324 0.0 0.0 0.00 0.00 0.00 64 1022.2
20260906045610 74 324 0.0 1.0 0.00 0.00 0.00 63 1022.1
20260906045045 74 324 0.0 1.0 0.00 0.00 0.00 65 1022.1
20260906044546 74 324 0.0 0.0 0.00 0.00 0.00 63 1022.1
20260906044054 74 324 0.0 0.0 0.00 0.00 0.00 62 1022.1
20260906043536 74 324 0.0 0.0 0.00 0.00 0.00 61 1022.1
20260906043043 74 324 0.0 0.0 0.00 0.00 0.00 62 1022.0
20260906042544 74 324 0.0 0.0 0.00 0.00 0.00 64 1022.0
20260906042032 74 324 0.0 0.0 0.00 0.00 0.00 64 1022.0
20260906041535 74 324 0.0 0.0 0.00 0.00 0.00 64 1022.0
20260906041046 74 324 0.0 0.0 0.00 0.00 0.00 62 1022.0
20260906040549 73 324 0.0 0.0 0.00 0.00 0.00 63 1022.0
20260906040040 73 324 0.0 0.0 0.00 0.00 0.00 64 1022.0
20260906035542 73 324 0.0 0.0 0.00 0.00 0.00 66 1021.9
20260906035048 73 324 0.0 0.0 0.00 0.00 0.00 67 1021.9
20260906034544 73 324 0.0 0.0 0.00 0.00 0.00 67 1021.9
20260906034054 73 324 0.0 0.0 0.00 0.00 0.00 64 1021.7
20260906033535 73 324 0.0 2.0 0.00 0.00 0.00 65 1021.7
20260906033046 74 324 0.0 2.0 0.00 0.00 0.00 65 1021.7
20260906032551 74 324 0.0 2.0 0.00 0.00 0.00 64 1021.6
20260906032041 74 324 0.0 2.0 0.00 0.00 0.00 65 1021.6
20260906031545 74 324 0.0 0.0 0.00 0.00 0.00 64 1021.6
20260906031037 74 324 0.0 0.0 0.00 0.00 0.00 64 1021.6
20260906030542 74 324 0.0 0.0 0.00 0.00 0.00 64 1021.5
20260906030048 74 324 0.0 0.0 0.00 0.00 0.00 63 1021.6
20260906025543 74 324 0.0 0.0 0.00 0.00 0.00 63 1021.5
20260906025034 75 324 0.0 3.0 0.00 0.00 0.00 62 1021.4
20260906024536 75 324 0.0 4.0 0.00 0.00 0.00 62 1021.3
20260906024048 75 324 0.0 4.0 0.00 0.00 0.00 63 1021.2
20260906023611 75 324 1.0 3.0 0.00 0.00 0.00 63 1021.2
20260906023036 75 324 0.0 0.0 0.00 0.00 0.00 64 1021.1
20260906022539 75 324 0.0 3.0 0.00 0.00 0.00 63 1021.1
20260906022050 75 324 1.0 4.0 0.00 0.00 0.00 62 1021.1
20260906021554 75 324 2.0 4.0 0.00 0.00 0.00 62 1021.0
20260906021040 76 324 0.0 2.0 0.00 0.00 0.00 61 1021.0
20260906020543 76 324 0.0 4.0 0.00 0.00 0.00 60 1021.0
20260906020033 76 324 2.0 5.0 0.00 0.00 0.00 61 1020.8
20260906015556 75 312 3.0 5.0 0.00 0.00 0.00 64 1020.9
20260906015045 75 300 0.0 0.0 0.00 0.00 0.00 63 1020.9
20260906014546 76 133 0.0 0.0 0.00 0.00 0.00 62 1021.0
20260906014106 77 302 0.0 0.0 0.00 0.00 0.00 60 1020.9
20260906013550 77 302 0.0 3.0 0.00 0.00 0.00 59 1020.8
20260906013040 77 249 0.0 2.0 0.00 0.00 0.00 59 1020.8
20260906012542 77 306 0.0 0.0 0.00 0.00 0.00 60 1020.8
20260906012121 76 306 0.0 0.0 0.00 0.00 0.00 60 1020.7
20260906011538 76 328 0.0 2.0 0.00 0.00 0.00 59 1020.7
20260906011047 75 328 0.0 2.0 0.00 0.00 0.00 62 1020.8
20260906010610 76 318 0.0 6.0 0.00 0.00 0.00 62 1020.8
20260906010108 76 248 1.0 8.0 0.00 0.00 0.00 61 1020.8
20260906005603 76 223 1.0 5.0 0.00 0.00 0.00 61 1020.8
20260906005033 76 245 3.0 5.0 0.00 0.00 0.00 61 1020.7
20260906004537 76 247 1.0 4.0 0.00 0.00 0.00 61 1020.8
20260906004047 76 266 0.0 4.0 0.00 0.00 0.00 61 1020.8
20260906003552 75 282 0.0 4.0 0.00 0.00 0.00 62 1020.7
20260906003040 75 297 0.0 0.0 0.00 0.00 0.00 63 1020.6
20260906002537 75 297 0.0 0.0 0.00 0.00 0.00 63 1020.6
20260906002044 75 283 0.0 0.0 0.00 0.00 0.00 63 1020.6
20260906001604 75 283 0.0 0.0 0.00 0.00 0.00 63 1020.6
20260906001102 76 306 0.0 0.0 0.00 0.00 0.00 62 1020.6
20260906000603 76 315 0.0 0.0 0.00 0.00 0.00 61 1020.5
20260906000100 75 315 0.0 2.0 0.00 0.00 0.00 60 1020.5
20260905235537 75 315 0.0 4.0 0.00 0.00 0.00 61 1020.5
20260905235044 75 326 1.0 4.0 0.00 0.00 0.00 61 1020.6
20260905234547 76 326 0.0 0.0 0.00 0.00 0.00 60 1020.6
20260905234056 76 326 0.0 1.0 0.00 0.00 0.00 60 1020.5
20260905233535 75 327 0.0 1.0 0.00 0.00 0.00 62 1020.6
20260905233042 76 330 0.0 0.0 0.00 0.00 0.00 61 1020.6
20260905232546 76 330 0.0 0.0 0.00 0.00 0.00 60 1020.6
20260905232103 76 330 0.0 0.0 0.00 0.00 0.00 60 1020.5
20260905231546 76 330 0.0 0.0 0.00 0.00 0.00 61 1020.5
20260905231036 76 330 0.0 0.0 0.00 0.00 0.00 61 1020.5
20260905230540 77 330 0.0 0.0 0.00 0.00 0.00 60 1020.6
20260905230040 77 330 0.0 0.0 0.00 0.00 0.00 58 1020.6
20260905225543 77 330 0.0 0.0 0.00 0.00 0.00 58 1020.6
20260905225101 77 330 0.0 0.0 0.00 0.00 0.00 59 1020.5
20260905224536 77 330 0.0 0.0 0.00 0.00 0.00 57 1020.6
20260905224042 78 330 0.0 0.0 0.00 0.00 0.00 57 1020.6
20260905223543 79 330 0.0 0.0 0.00 0.00 0.00 57 1020.6
20260905223035 79 330 0.0 0.0 0.00 0.00 0.00 55 1020.6
20260905222538 79 330 0.0 0.0 0.00 0.00 0.00 54 1020.5
20260905222048 79 330 0.0 0.0 0.00 0.00 0.00 54 1020.5
20260905221544 79 330 0.0 0.0 0.00 0.00 0.00 55 1020.5
20260905221037 79 330 0.0 0.0 0.00 0.00 0.00 54 1020.5
20260905220601 80 330 0.0 0.0 0.00 0.00 0.00 54 1020.4
20260905220055 80 330 0.0 0.0 0.00 0.00 0.00 53 1020.3
20260905215549 80 325 0.0 0.0 0.00 0.00 0.00 54 1020.3
20260905215035 80 325 0.0 5.0 0.00 0.00 0.00 53 1020.2
20260905214537 79 244 1.0 5.0 0.00 0.00 0.00 53 1020.1
20260905214045 80 213 0.0 0.0 0.00 0.00 0.00 53 1020.1
20260905213546 80 256 0.0 0.0 0.00 0.00 0.00 53 1020.0
20260905213051 80 238 0.0 0.0 0.00 0.00 0.00 54 1020.1
20260905212533 80 238 0.0 0.0 0.00 0.00 0.00 54 1020.0
20260905212042 80 238 0.0 0.0 0.00 0.00 0.00 53 1019.9
20260905211545 80 238 0.0 0.0 0.00 0.00 0.00 53 1019.9
20260905211102 80 238 0.0 0.0 0.00 0.00 0.00 54 1019.9
20260905210542 80 238 0.0 0.0 0.00 0.00 0.00 54 1019.8
20260905210101 79 303 0.0 0.0 0.00 0.00 0.00 56 1019.9
20260905205535 79 310 0.0 0.0 0.00 0.00 0.00 58 1019.9
20260905205041 80 313 0.0 0.0 0.00 0.00 0.00 56 1019.9
20260905204606 81 313 0.0 0.0 0.00 0.00 0.00 56 1019.8
20260905204056 81 313 0.0 0.0 0.00 0.00 0.00 54 1019.8
20260905203537 81 313 0.0 0.0 0.00 0.00 0.00 55 1019.7
20260905203050 81 313 0.0 0.0 0.00 0.00 0.00 55 1019.7
20260905202551 81 313 0.0 0.0 0.00 0.00 0.00 55 1019.6
20260905202038 81 313 0.0 0.0 0.00 0.00 0.00 56 1019.5
20260905201540 81 313 0.0 0.0 0.00 0.00 0.00 56 1019.5
20260905201047 81 313 0.0 0.0 0.00 0.00 0.00 57 1019.4
20260905200549 81 313 0.0 0.0 0.00 0.00 0.00 57 1019.4
20260905200035 80 313 0.0 0.0 0.00 0.00 0.00 58 1019.3
20260905195539 81 304 0.0 0.0 0.00 0.00 0.00 59 1019.4